KE4U-1 Weather Reports


time (UTC)temp
C
wind
direction
speed
KPH
gust
KPH
rain 1hr
cm
rain 24hr
cm
rain mn
cm
humidity
%
barometer
mb
20210920063438 21 0 0.0 0.0 0.00 0.00 0.00 94 1013.0
20210920061056 21 0 0.0 0.0 0.00 0.00 0.00 94 1013.0
20210920055855 21 0 0.0 0.0 0.00 0.00 0.00 94 1012.9
20210920054657 21 0 0.0 0.0 0.00 0.00 0.00 94 1012.8
20210920053457 21 0 0.0 0.0 0.00 0.00 0.00 94 1012.7
20210920052256 21 0 0.0 0.0 0.00 0.00 0.00 94 1012.8
20210920051057 21 0 0.0 0.0 0.00 0.00 0.00 94 1012.7
20210920045856 21 0 0.0 0.0 0.00 0.00 0.00 94 1012.7
20210920044250 21 0 0.0 0.0 0.00 0.00 0.00 93 1012.6
20210920043050 21 0 0.0 0.0 0.00 0.00 0.00 93 1012.5
20210920041850 21 0 0.0 0.0 0.00 0.00 0.00 93 1012.6
20210920040649 21 0 0.0 0.0 0.00 0.00 0.00 93 1012.5
20210920035451 21 0 0.0 0.0 0.00 0.00 0.00 93 1012.4
20210920034249 21 0 0.0 0.0 0.00 0.00 0.00 93 1012.3
20210920033051 21 0 0.0 0.0 0.00 0.00 0.00 93 1012.3
20210920031851 22 0 0.0 0.0 0.00 0.00 0.00 93 1012.2
20210920030649 22 0 0.0 0.0 0.00 0.00 0.00 93 1012.1
20210920024953 22 0 0.0 0.0 0.00 0.00 0.00 92 1012.1
20210920023753 22 0 0.0 0.0 0.00 0.00 0.00 91 1011.9
20210920022554 22 0 0.0 0.0 0.00 0.00 0.00 90 1011.7
20210920021353 22 0 0.0 0.0 0.00 0.00 0.00 90 1011.6
20210920020154 22 0 0.0 0.0 0.00 0.00 0.00 89 1011.6
20210920014953 23 0 0.0 0.0 0.00 0.00 0.00 88 1011.5
20210920013753 23 0 0.0 0.0 0.00 0.00 0.00 87 1011.5
20210920012555 23 0 0.0 0.0 0.00 0.00 0.00 86 1011.4
20210920011353 23 0 0.0 0.0 0.00 0.00 0.00 86 1011.2
20210920010153 24 0 0.0 0.0 0.00 0.00 0.00 85 1011.2
20210920004953 24 0 0.0 0.0 0.00 0.00 0.00 85 1011.1
20210920003753 25 0 0.0 0.0 0.00 0.00 0.00 85 1010.9
20210920002553 25 0 0.0 0.0 0.00 0.00 0.00 84 1010.7
20210920001353 25 0 0.0 0.0 0.00 0.00 0.00 84 1010.5
20210920000152 25 0 0.0 0.0 0.00 0.00 0.00 84 1010.5
20210919234952 25 0 0.0 0.0 0.00 0.00 0.00 83 1010.4
20210919232555 26 0 0.0 0.0 0.00 0.00 0.00 81 1010.4
20210919231354 26 0 0.0 0.0 0.00 0.00 0.00 79 1010.1
20210919230155 26 0 0.0 0.0 0.00 0.00 0.00 78 1010.0
20210919225003 26 0 0.0 0.0 0.00 0.00 0.00 76 1009.9
20210919223754 27 0 0.0 0.0 0.00 0.00 0.00 74 1009.8
20210919222553 27 0 0.0 0.0 0.00 0.00 0.00 73 1009.9
20210919221353 27 0 0.0 0.0 0.00 0.00 0.00 71 1009.8
20210919220153 28 0 0.0 0.0 0.00 0.00 0.00 70 1009.7
20210919214955 28 0 0.0 0.0 0.00 0.00 0.00 70 1009.6
20210919213618 29 0 0.0 0.0 0.00 0.00 0.00 66 1009.6
20210919212418 30 0 0.0 3.2 0.00 0.00 0.00 60 1009.6
20210919210338 31 0 0.0 3.2 0.00 0.00 0.00 53 1009.7
20210919205137 31 0 0.0 4.8 0.00 0.00 0.00 53 1009.8
20210919203939 31 0 0.0 4.8 0.00 0.00 0.00 53 1009.9
20210919202740 32 0 0.0 3.2 0.00 0.00 0.00 53 1009.9
20210919201538 32 189 1.6 8.0 0.00 0.00 0.00 49 1010.1
20210919195619 32 172 1.6 16.1 0.00 0.00 0.00 53 1010.4
20210919194419 32 0 0.0 4.8 0.00 0.00 0.00 53 1010.3
20210919193219 32 167 3.2 9.7 0.00 0.00 0.00 54 1010.6
20210919192019 32 0 0.0 6.4 0.00 0.00 0.00 49 1010.6
20210919190820 33 0 0.0 6.4 0.00 0.00 0.00 48 1010.8
20210919185022 32 0 0.0 6.4 0.00 0.00 0.00 49 1011.0
20210919183822 33 0 0.0 1.6 0.00 0.00 0.00 53 1011.1
20210919182623 32 0 0.0 6.4 0.00 0.03 0.00 55 1011.2
20210919181424 32 281 1.6 9.7 0.00 0.03 0.00 50 1011.2
20210919180222 32 195 1.6 14.5 0.00 0.03 0.00 52 1011.5
20210919175024 32 201 1.6 19.3 0.00 0.03 0.00 53 1011.5
20210919173453 32 201 3.2 14.5 0.00 0.03 0.00 54 1011.7
20210919172252 32 189 1.6 8.0 0.00 0.03 0.00 57 1011.8
20210919171054 31 0 0.0 11.3 0.00 0.03 0.00 57 1012.0
20210919165852 31 0 0.0 6.4 0.00 0.03 0.00 62 1012.1
20210919164655 30 0 0.0 1.6 0.00 0.03 0.00 66 1012.2
20210919163457 30 194 1.6 4.8 0.00 0.03 0.00 64 1012.3
20210919160319 28 334 1.6 6.4 0.00 0.03 0.00 74 1012.6
20210919155118 27 0 0.0 8.0 0.00 0.03 0.00 74 1012.6
20210919153918 27 0 0.0 4.8 0.00 0.03 0.00 80 1012.7
20210919152718 26 0 0.0 6.4 0.00 0.03 0.00 80 1012.6
20210919151517 25 0 0.0 8.0 0.00 0.03 0.00 87 1012.7
20210919150318 24 0 0.0 3.2 0.00 0.03 0.00 93 1012.7
20210919145118 23 0 0.0 3.2 0.00 0.03 0.00 95 1012.7
20210919143918 23 0 0.0 0.0 0.00 0.03 0.00 95 1012.8
20210919142723 23 0 0.0 1.6 0.00 0.03 0.00 96 1012.6
20210919141518 22 0 0.0 0.0 0.00 0.03 0.00 96 1012.6
20210919140318 22 0 0.0 0.0 0.00 0.03 0.00 96 1012.5
20210919135117 22 0 0.0 0.0 0.00 0.03 0.00 96 1012.4
20210919133920 21 0 0.0 0.0 0.00 0.03 0.00 96 1012.3
20210919132720 21 0 0.0 0.0 0.00 0.03 0.00 96 1012.1
20210919131517 20 0 0.0 0.0 0.00 0.03 0.00 96 1012.1
20210919130317 20 0 0.0 0.0 0.00 0.03 0.00 96 1012.0
20210919124151 19 0 0.0 0.0 0.00 0.03 0.00 96 1011.9
20210919122951 19 0 0.0 0.0 0.00 0.03 0.00 95 1011.8
20210919121751 18 0 0.0 0.0 0.00 0.03 0.00 96 1011.8
20210919120551 18 0 0.0 0.0 0.00 0.03 0.00 95 1011.9
20210919114652 18 0 0.0 0.0 0.00 0.03 0.00 95 1011.7
20210919112944 18 0 0.0 0.0 0.00 0.03 0.03 95 1011.7
20210919111743 18 0 0.0 0.0 0.00 0.03 0.03 95 1011.6
20210919110546 18 0 0.0 0.0 0.00 0.03 0.03 95 1011.4
20210919105343 18 0 0.0 0.0 0.00 0.03 0.03 95 1011.3
20210919104141 18 0 0.0 0.0 0.00 0.03 0.03 95 1011.3
20210919102947 18 0 0.0 0.0 0.00 0.03 0.03 95 1011.2
20210919101742 18 0 0.0 0.0 0.00 0.03 0.03 95 1011.1
20210919100543 18 0 0.0 0.0 0.00 0.03 0.03 95 1011.0
20210919095344 18 0 0.0 0.0 0.00 0.03 0.03 95 1011.0
20210919094142 18 0 0.0 0.0 0.00 0.03 0.03 95 1010.9
20210919092942 18 0 0.0 0.0 0.00 0.03 0.03 95 1010.9
20210919091745 18 0 0.0 0.0 0.00 0.03 0.03 95 1010.9
20210919090542 18 0 0.0 0.0 0.00 0.03 0.03 95 1010.8
20210919085341 18 0 0.0 0.0 0.00 0.03 0.03 95 1010.8
20210919084142 18 0 0.0 0.0 0.00 0.03 0.03 95 1010.8
20210919082941 18 0 0.0 0.0 0.00 0.03 0.03 95 1010.8
20210919081742 19 0 0.0 0.0 0.00 0.03 0.03 95 1010.9
20210919080542 19 0 0.0 0.0 0.00 0.03 0.03 95 1010.8
20210919075342 19 0 0.0 0.0 0.00 0.03 0.03 95 1010.7
20210919074141 19 0 0.0 0.0 0.00 0.03 0.03 95 1010.8
20210919072942 19 0 0.0 0.0 0.00 0.03 0.03 95 1010.8
20210919071741 19 0 0.0 0.0 0.00 0.03 0.03 95 1010.7
20210919070037 20 0 0.0 0.0 0.00 0.03 0.03 95 1010.8
20210919064837 20 0 0.0 0.0 0.00 0.03 0.03 95 1010.8